Regional Weather Roundup
Issued by NWS

Home | Current Version | Previous Version | Graphics & Text | Print | Product List | Glossary On
Versions: 1 2 3 4 5 6 7 8 9 10 11 12 13 14 15 16 17 18 19 20 21 22 23 24 25 26 27 28 29 30 31 32 33 34 35 36 37 38 39 40 41 42 43 44 45 46 47 48 49 50
000
ASUS43 KFSD 292102
RWRSD

WEATHER ROUNDUP FOR SOUTH DAKOTA
NATIONAL WEATHER SERVICE SIOUX FALLS SD
400 PM CDT WED OCT 29 2014

NOTE: "FAIR" INDICATES FEW OR NO CLOUDS BELOW 12,000 FEET WITH NO
SIGNIFICANT WEATHER AND/OR OBSTRUCTIONS TO VISIBILITY.


SDZ001>005-009-010-012>017-292200-
NORTHWEST AND NORTH CENTRAL SOUTH DAKOTA

CITY           SKY/WX    TMP DP  RH WIND       PRES   REMARKS
BUFFALO          N/A     58  34  40 W28       29.89R
FAITH            N/A     53  28  38 SW7       29.97R
MOBRIDGE       CLOUDY    54  29  38 S9        29.95R
$$

SDZ012>016-024>037-041>051-057-063-072>074-292200-
SOUTHWEST AND SOUTH CENTRAL SOUTH DAKOTA

CITY           SKY/WX    TMP DP  RH WIND       PRES   REMARKS
RAPID CTY ARPT MOSUNNY   61  28  28 N22       29.97R
PIERRE         MOSUNNY   60  26  27 S12       29.95F
CUSTER         CLOUDY    56  26  31 E14       30.02R
ELLSWORTH AFB  PTSUNNY   62  29  28 N18G24    29.98R
PHILIP         PTSUNNY   62  26  25 E3        29.94F
PINE RIDGE     PTSUNNY   63  25  23 W7        29.96F
SPEARFISH      FAIR      55  34  44 W12G17    30.01F
WINNER         FAIR      64  22  20 S13       29.96F
$$

SDZ004>011-016>023-039-040-292200-
NORTHEAST SOUTH DAKOTA

CITY           SKY/WX    TMP DP  RH WIND       PRES   REMARKS
ABERDEEN       PTSUNNY   53  29  39 S12       30.02F
WATERTOWN      SUNNY     48  32  53 S10       30.04F
SISSETON         N/A     47  32  56 S6        30.04F
$$

SDZ017-020-022-023-036>040-048>070-292200-
SOUTHEAST SOUTH DAKOTA

CITY           SKY/WX    TMP DP  RH WIND       PRES   REMARKS
SIOUX FALLS    MOSUNNY   50  31  48 S10       30.07F
HURON          SUNNY     52  30  43 S6        30.02F
CHAMBERLAIN    MOSUNNY   56  30  36 SE10G16   29.98F
MITCHELL       SUNNY     55  32  41 S12       30.04F
YANKTON        SUNNY     55  30  38 SE9G16    30.07S
$$

ABBREVIATIONS USED IN REMARKS
   TC - TEMPERATURE IN CELSIUS
  WCI - WIND CHILL INDEX
   HX - HEAT INDEX
  VSB - VISIBILITY




USA.gov is the U.S. government's official web portal to all federal, state and local government web resources and services.